GW4411 Weather Reports


Display with metric or nautical units.
time (UTC)temp
F
wind
direction
speed
MPH
gust
MPH
rain 1hr
in
rain 24hr
in
rain mn
in
humidity
%
barometer
mb
20260503005409 76 149 3.0 9.0 0.00 0.03 0.01 73 1020.4
20260503004509 77 161 2.0 5.0 0.00 0.03 0.01 73 1020.5
20260503003603 77 161 3.0 10.0 0.00 0.03 0.01 73 1020.6
20260503002918 76 149 3.0 10.0 0.00 0.03 0.01 75 1020.7
20260503001808 75 131 3.0 10.0 0.00 0.09 0.01 76 1020.7
20260503000908 75 122 1.0 7.0 0.00 0.09 0.01 77 1020.8
20260503000010 76 174 2.0 6.0 0.00 0.09 0.01 77 1020.7
20260502235404 76 203 2.0 5.0 0.00 0.09 0.01 77 1020.6
20260502234506 74 197 2.0 5.0 0.00 0.09 0.01 79 1020.8
20260502233818 74 195 3.0 6.0 0.00 0.09 0.01 78 1020.9
20260502232703 73 202 3.0 6.0 0.00 0.09 0.01 79 1021.0
20260502231803 72 209 3.0 9.0 0.00 0.09 0.01 80 1021.1
20260502230903 72 193 2.0 6.0 0.00 0.09 0.01 81 1021.3
20260502230219 71 199 1.0 4.0 0.00 0.09 0.01 83 1021.1
20260502225619 70 202 1.0 4.0 0.00 0.09 0.01 84 1021.2
20260502224505 68 194 2.0 10.0 0.00 0.09 0.01 88 1021.1
20260502223609 68 204 3.0 6.0 0.00 0.09 0.01 90 1021.1
20260502222704 66 205 1.0 6.0 0.00 0.09 0.01 93 1021.1
20260502221804 65 202 1.0 6.0 0.00 0.09 0.01 96 1020.9
20260502220904 64 192 1.0 5.0 0.00 0.09 0.01 97 1020.8
20260502220219 64 207 0.0 4.0 0.00 0.09 0.01 97 1020.7
20260502215405 63 197 1.0 4.0 0.00 0.09 0.01 98 1020.7
20260502214505 63 203 1.0 4.0 0.00 0.09 0.01 98 1020.7
20260502213605 62 152 0.0 1.0 0.00 0.09 0.01 98 1020.6
20260502212708 62 183 1.0 4.0 0.00 0.09 0.01 98 1020.4
20260502211804 61 222 0.0 2.0 0.00 0.10 0.01 98 1020.5
20260502210904 60 0 0.0 0.0 0.00 0.10 0.01 98 1020.2
20260502210006 60 0 0.0 0.0 0.00 0.12 0.01 97 1020.3
20260502205409 60 0 0.0 0.0 0.00 0.13 0.01 98 1020.3
20260502204505 59 0 0.0 0.0 0.00 0.13 0.01 97 1020.0
20260502203819 59 229 0.0 1.0 0.00 0.13 0.01 97 1020.0
20260502202704 59 229 0.0 1.0 0.00 0.13 0.01 97 1019.8
20260502201804 59 0 0.0 0.0 0.00 0.16 0.01 97 1019.7
20260502201122 59 229 0.0 1.0 0.00 0.16 0.01 97 1019.8
20260502200010 59 0 0.0 0.0 0.00 0.16 0.01 97 1019.7
20260502195409 59 0 0.0 0.0 0.00 0.16 0.01 97 1019.6
20260502194505 59 229 0.0 1.0 0.00 0.16 0.01 97 1019.5
20260502193608 59 0 0.0 0.0 0.00 0.16 0.01 97 1019.4
20260502192704 59 0 0.0 0.0 0.00 0.16 0.01 97 1019.4
20260502191823 59 0 0.0 0.0 0.00 0.16 0.01 97 1019.5
20260502190904 59 229 0.0 1.0 0.00 0.16 0.01 97 1019.5
20260502190010 60 0 0.0 0.0 0.00 0.16 0.01 97 1019.5
20260502185404 60 0 0.0 0.0 0.00 0.16 0.01 97 1019.4
20260502184507 60 229 0.0 1.0 0.00 0.16 0.01 97 1019.3
20260502183606 60 0 0.0 0.0 0.00 0.16 0.01 97 1019.3
20260502182708 60 229 0.0 1.0 0.00 0.17 0.01 97 1019.5
20260502181805 60 0 0.0 0.0 0.00 0.19 0.01 97 1019.5
20260502180904 60 0 0.0 0.0 0.00 0.19 0.01 97 1019.5
20260502180224 60 229 0.0 2.0 0.00 0.19 0.01 97 1019.5
20260502163612 62 229 0.0 1.0 0.01 0.29 0.01 96 1019.9
20260502162713 62 225 0.0 2.0 0.00 0.28 0.00 96 1020.0
20260502161810 62 0 0.0 0.0 0.00 0.28 0.00 96 1019.9
20260502160906 63 0 0.0 0.0 0.00 0.28 0.00 96 1020.0
20260502151805 64 0 0.0 0.0 0.00 0.28 0.00 96 1020.4
20260502150904 64 0 0.0 0.0 0.00 0.28 0.00 96 1020.5
20260502150218 64 0 0.0 0.0 0.00 0.28 0.00 96 1020.6
20260502123603 67 214 0.0 2.0 0.00 0.30 0.28 96 1020.9
20260502122708 67 206 1.0 9.0 0.00 0.30 0.28 96 1021.0
20260502122023 67 213 1.0 4.0 0.00 0.30 0.28 96 1021.1
20260502121118 67 227 0.0 2.0 0.00 0.30 0.28 96 1021.2
20260502115413 67 0 0.0 0.0 0.00 0.33 0.28 96 1021.2
20260502113604 67 0 0.0 0.0 0.00 0.44 0.28 96 1021.1
20260502112704 67 0 0.0 0.0 0.00 0.49 0.28 96 1021.1
20260502111804 67 0 0.0 0.0 0.00 0.50 0.28 96 1021.0
20260502111117 67 0 0.0 0.0 0.00 0.54 0.28 96 1020.9
20260502110005 67 66 0.0 1.0 0.00 0.61 0.28 96 1021.1
20260502105404 67 66 0.0 1.0 0.00 0.62 0.28 96 1021.1
20260502104505 67 66 0.0 2.0 0.00 0.64 0.28 96 1021.0
20260502103603 67 200 1.0 4.0 0.00 0.65 0.28 95 1021.0
20260502102704 67 232 0.0 1.0 0.00 0.67 0.28 95 1021.1
20260502101804 67 0 0.0 0.0 0.00 0.69 0.28 95 1021.1
20260502100904 67 0 0.0 0.0 0.00 0.69 0.28 95 1021.0
20260502091119 68 0 0.0 0.0 0.01 0.69 0.28 94 1020.5
20260502070903 71 148 0.0 2.0 0.00 0.68 0.27 88 1019.3
20260502070005 71 153 0.0 2.0 0.00 0.68 0.27 87 1019.2
20260502065403 72 145 0.0 2.0 0.00 0.68 0.27 87 1019.3
20260502064506 72 152 1.0 4.0 0.00 0.68 0.27 87 1019.1
20260502063604 72 95 0.0 4.0 0.00 0.68 0.27 86 1019.1
20260502062704 72 122 3.0 10.0 0.00 0.68 0.27 86 1019.0
20260502061803 72 127 0.0 2.0 0.00 0.68 0.27 86 1019.0
20260502060904 72 140 0.0 4.0 0.00 0.68 0.27 86 1019.1
20260502060009 72 92 0.0 4.0 0.00 0.68 0.27 85 1019.2
20260502055404 72 114 1.0 4.0 0.00 0.68 0.27 84 1019.1
20260502054506 73 132 1.0 7.0 0.00 0.68 0.27 83 1019.3
20260502053609 74 125 5.0 15.0 0.00 0.68 0.27 82 1019.1
20260502052703 74 109 4.0 15.0 0.00 0.68 0.27 79 1019.0
20260502051804 74 99 1.0 6.0 0.00 0.68 0.27 82 1019.0
20260502050903 74 99 3.0 12.0 0.00 0.68 0.27 82 1019.1
20260502050225 74 96 4.0 10.0 0.00 0.68 0.27 81 1019.2
20260502045404 75 113 4.0 10.0 0.01 0.68 0.27 80 1019.2
20260502044505 76 121 5.0 14.0 0.01 0.68 0.27 80 1019.3
20260502043603 75 110 2.0 7.0 0.01 0.68 0.27 81 1019.2
20260502042703 76 108 4.0 12.0 0.01 0.68 0.27 79 1019.1
20260502041804 74 118 4.0 10.0 0.01 0.68 0.27 83 1019.0
20260502040904 73 109 4.0 10.0 0.01 0.68 0.27 85 1019.2
20260502040220 73 95 5.0 10.0 0.01 0.68 0.27 85 1019.1
20260502035404 77 112 5.0 10.0 0.00 0.67 0.26 77 1019.2
20260502034719 76 111 4.0 10.0 0.00 0.67 0.26 78 1019.2
20260502033818 75 99 2.0 7.0 0.00 0.67 0.26 81 1019.2
20260502032704 75 119 3.0 11.0 0.00 0.67 0.26 79 1019.3
20260502031804 76 134 3.0 10.0 0.00 0.67 0.26 77 1019.3
20260502030903 77 122 3.0 9.0 0.00 0.67 0.26 76 1019.3
20260502030005 78 94 4.0 10.0 0.00 0.67 0.26 74 1019.4
20260502025404 77 112 4.0 12.0 0.00 0.67 0.26 76 1019.5
20260502024505 76 117 5.0 11.0 0.00 0.67 0.26 76 1019.7
20260502023609 74 115 4.0 11.0 0.00 0.67 0.26 80 1019.9
20260502022705 74 114 6.0 17.0 0.00 0.67 0.26 78 1020.1
20260502021804 75 119 3.0 10.0 0.00 0.67 0.26 77 1020.1
20260502020903 76 101 6.0 16.0 0.00 0.67 0.26 75 1020.2
20260502020005 76 94 5.0 14.0 0.00 0.67 0.26 74 1020.2
20260502015403 77 111 4.0 10.0 0.00 0.67 0.26 78 1020.3
20260502014510 74 107 5.0 16.0 0.00 0.67 0.26 78 1020.4
20260502013609 74 162 2.0 10.0 0.00 0.67 0.26 82 1020.5
20260502012705 75 151 1.0 6.0 0.01 0.68 0.26 81 1020.6
20260502011803 74 99 2.0 6.0 0.06 0.68 0.26 83 1020.7
20260502010913 74 104 3.0 12.0 0.06 0.68 0.26 82 1020.8
20260502010005 74 107 4.0 12.0 0.06 0.68 0.26 85 1020.9